Theta_e
287 286 285 285 285 285 285 285 285 286 286 287 287 288 289 289 288 288 289 289 289 289
285 284 284 284 285 284 284 285 285 286 286 286 287 288 288 288 288 289 289 289 290 289
284 283 284 284 284 284 284 284 284 285 286 286 286 287 288 288 288 288 288 289 288 289
283 283 283 284 284 284 284 284 284 285 285 285 286 286 286 286 286 286 287 287 287 287
283 283 283 283 283 283 283 284 284 284 284 285 285 285 284 284 285 285 285 286 286 286
282 282 282 282 283 283 283 283 283 284 284 284 284 283 283 283 283 285 285 286 286 286
281 282 282 282 282 282 283 282 282 283 283 283 282 282 282 283 284 285 286 285 284 284
282 282 282 282 282 282 282 282 283 282 282 282 282 282 282 284 285 286 284 284 283 283
280 280 280 281 281 281 281 282 282 282 281 280 281 282 284 285 285 284 283 282 281 281
278 278 277 278 279 278 280 281 281 282 282 280 279 281 283 284 284 284 282 280 279 279
275 276 275 276 277 276 279 279 281 282 282 277 277 281 283 283 284 283 282 279 278 278
273 274 274 275 276 276 279 281 282 282 282 279 276 280 281 283 283 282 281 281 279 278
271 273 274 276 276 278 281 281 281 281 282 280 274 278 280 283 281 278 279 279 279 279
271 273 274 274 275 279 280 280 280 280 280 273 272 274 280 282 280 279 278 277 277 277
Wind_Speed
6 4 4 4 4 3 3 4 5 5 5 6 7 8 8 7 8 10 8 12 10 8
5 6 6 6 5 3 3 4 4 5 6 7 7 8 9 7 9 10 10 10 10 9
6 6 5 5 6 5 4 4 5 6 6 6 7 7 8 8 8 9 7 8 10 10
6 6 6 7 6 5 4 5 6 6 6 7 7 7 8 9 10 11 11 10 10 12
8 8 8 8 8 6 6 6 6 6 6 7 7 7 8 9 10 11 11 12 11 12
10 10 11 10 8 7 7 7 6 6 6 6 6 7 8 9 9 10 11 11 10 8
12 13 11 9 9 9 8 7 6 6 6 6 6 7 8 8 9 9 8 10 10 11
13 11 11 10 9 9 8 7 6 6 6 6 6 5 7 9 9 7 9 9 9 9
11 11 11 10 10 9 8 7 6 6 6 5 5 10 13 10 6 7 7 9 10 10
11 12 11 10 10 9 9 7 7 5 5 6 5 11 12 12 7 6 7 8 9 8
10 11 9 10 10 7 7 7 6 6 6 4 5 11 11 12 8 6 9 8 7 8
9 10 11 12 11 7 7 6 8 5 8 6 6 10 10 10 7 6 7 8 7 7
6 8 11 11 10 6 6 9 5 7 7 6 6 10 9 9 4 5 5 6 6 7
10 12 10 8 6 9 9 7 8 8 7 5 5 7 9 10 4 4 4 5 6 5
Wind_Direction
215 212 218 222 223 238 255 280 293 294 288 289 291 289 285 281 280 281 269 270 265 264
215 209 216 217 217 233 253 271 281 280 279 283 287 286 287 280 277 273 273 271 269 267
217 214 223 220 220 226 246 259 273 275 277 289 290 289 287 287 286 288 284 282 282 282
217 214 214 225 223 223 233 245 256 266 278 283 286 290 290 288 287 282 283 280 277 278
205 203 207 224 222 212 222 236 248 259 268 274 277 288 288 288 286 285 283 282 277 275
211 203 206 212 214 209 213 229 242 251 259 269 279 286 282 274 274 273 281 282 281 290
216 209 204 202 203 206 206 217 230 241 248 256 273 279 277 275 282 284 290 293 289 292
220 202 190 193 198 202 204 211 221 235 241 254 267 271 265 284 280 283 294 295 295 292
211 193 194 190 191 195 201 203 212 221 231 258 269 278 281 286 295 279 299 302 297 290
213 202 190 185 188 196 196 194 200 214 221 259 269 282 291 293 286 275 294 296 292 293
202 199 181 186 197 195 191 199 200 217 236 253 270 279 294 290 287 288 294 292 290 287
208 201 181 194 198 191 190 197 215 215 238 238 263 284 287 288 286 281 290 291 275 282
197 208 205 195 192 185 190 216 206 231 238 236 258 277 284 281 275 279 291 284 280 312
200 206 207 184 173 184 200 204 215 231 234 246 239 263 273 277 265 273 297 299 322 322